Theta_e
316 332 337 338 335 333 333 332 330 328 329 334 334 335 334 339 342 344 346 347 346 343 341 339 335 330 325 322 327 321 313 313 314 314 313 311 311 311 310 311 313 313 314
315 330 334 336 334 333 336 333 331 331 330 336 338 337 340 340 342 342 342 342 341 338 338 334 328 324 320 319 318 317 314 311 311 311 307 303 305 310 310 309 311 310 312
312 320 327 336 334 334 337 336 334 338 336 340 341 340 340 338 337 336 334 334 335 333 332 326 323 320 318 316 314 314 311 308 309 308 305 300 298 303 306 308 307 307 309
314 317 324 331 333 334 336 337 337 340 342 341 340 339 337 334 333 330 327 326 328 326 325 322 320 317 316 314 313 313 309 308 307 308 309 306 305 300 299 305 306 306 308
319 318 326 330 331 334 330 331 337 338 343 340 341 339 335 333 329 325 322 321 322 322 322 319 317 315 314 313 313 312 311 308 307 306 305 304 304 303 300 298 303 306 306
324 325 325 329 328 328 328 331 334 334 335 338 341 337 333 328 324 321 319 319 319 319 319 318 315 314 313 313 313 312 311 309 308 306 305 304 302 302 302 300 299 300 304
317 326 325 323 324 321 320 326 333 334 332 334 337 335 331 328 325 321 320 317 317 315 314 314 313 313 313 313 312 311 310 309 309 308 307 306 305 304 303 302 300 299 303
315 324 327 324 324 322 324 328 330 332 332 331 336 334 331 327 324 321 319 317 316 314 313 313 314 315 315 313 312 311 310 310 309 308 308 307 306 306 305 304 301 298 299
312 322 325 328 326 329 325 325 326 329 329 329 336 332 328 325 321 319 318 316 315 315 314 314 313 313 314 313 311 310 310 310 308 308 306 304 303 303 303 303 302 300 294
306 322 323 326 330 329 326 323 326 327 328 332 335 331 327 324 321 319 317 316 313 313 312 312 312 313 313 313 311 309 309 309 307 304 303 301 300 299 300 301 302 301 299
312 323 323 324 331 329 328 324 324 326 330 335 334 330 324 322 320 319 316 313 312 311 311 312 313 313 312 311 310 310 310 308 306 305 303 301 298 296 296 298 299 300 300
309 323 329 326 333 334 336 330 330 327 334 335 329 324 322 320 318 317 314 312 311 311 312 313 314 314 313 311 311 312 310 308 305 302 300 298 299 295 295 296 297 297 299
307 327 330 329 332 336 338 337 333 334 333 328 324 322 319 319 316 314 311 311 310 310 311 313 313 313 312 311 310 311 310 308 303 300 298 297 296 295 295 296 297 297 300
309 326 327 331 333 336 336 336 333 330 326 324 321 319 319 317 315 312 311 310 310 310 310 311 311 312 311 311 311 308 305 304 302 301 298 297 297 296 296 298 297 298 298
317 323 327 329 332 333 332 330 326 325 323 320 318 319 319 317 313 311 310 310 311 309 308 307 307 307 309 311 308 305 303 302 301 301 299 298 302 305 303 300 298 297 297
316 321 324 328 330 329 329 327 324 322 322 319 319 318 316 313 312 311 311 309 307 306 306 305 304 302 304 304 307 305 300 300 299 295 294 295 298 297 301 303 304 304 297
310 319 322 324 328 329 327 324 322 322 319 318 317 315 313 312 312 311 309 306 305 304 303 301 300 298 296 300 304 305 301 296 292 292 292 293 294 294 293 297 300 300 301
309 317 321 324 328 327 325 322 321 320 318 316 314 313 312 312 312 310 307 304 303 302 300 298 297 296 295 298 301 302 297 293 292 292 292 291 290 292 293 293 294 295 295
311 313 320 326 327 326 323 322 320 319 317 315 313 313 313 312 311 308 306 304 301 299 296 296 294 294 294 297 300 298 293 292 292 293 292 291 291 294 294 293 293 293 294
312 318 324 326 324 322 322 321 320 318 315 314 314 313 313 312 311 308 306 303 301 298 296 291 291 296 295 297 297 295 293 291 292 292 291 296 293 294 294 292 291 292 292
310 320 324 322 320 321 320 318 317 315 315 315 314 313 313 311 310 308 307 303 300 295 291 290 289 291 295 296 295 295 293 292 291 290 291 291 295 294 293 293 292 291 292
315 321 321 322 321 322 320 316 314 316 315 314 312 312 311 311 309 308 307 303 296 293 290 290 289 290 292 295 295 295 295 295 292 291 291 292 294 293 293 292 292 293 293
316 321 320 320 322 321 318 316 315 315 314 312 311 311 311 309 309 307 305 301 296 294 292 292 290 288 289 290 294 293 293 294 290 291 294 293 293 293 292 294 293 293 290
315 321 321 320 319 320 316 314 315 315 312 311 310 311 309 308 308 308 307 303 298 296 295 292 289 287 286 287 288 288 290 294 294 295 294 294 293 293 292 291 291 290 290
316 318 320 317 314 314 314 314 314 314 311 310 310 309 308 305 300 295 301 305 302 300 296 294 290 288 286 286 288 288 289 290 291 290 289 288 288 288 288 288 288 288 289
314 313 314 313 312 312 312 313 313 312 311 309 308 305 302 300 298 294 290 290 295 296 295 292 290 286 288 289 289 289 290 290 291 289 286 285 286 286 286 286 286 286 287
Wind_Speed
10 15 15 7 8 8 11 9 10 11 10 8 7 4 4 4 4 4 7 6 6 6 8 5 5 3 4 3 3 3 5 5 3 5 6 4 5 6 5 4 4 4 4
10 14 18 12 12 16 14 11 9 9 7 7 4 4 5 4 4 6 7 6 8 6 6 7 5 5 5 5 4 4 3 3 4 3 3 2 4 4 5 4 3 5 3
13 13 12 17 10 15 14 13 11 10 8 8 8 8 8 6 5 5 6 5 7 6 7 6 5 6 4 4 3 3 6 4 4 4 4 2 3 0 3 4 4 4 3
11 12 12 12 15 13 9 13 13 8 7 11 10 15 10 10 3 4 5 6 5 7 7 6 6 6 4 5 3 2 4 4 4 3 5 5 3 3 1 3 2 3 3
15 14 19 22 24 19 16 11 11 10 9 1 12 11 10 9 8 7 9 7 5 6 7 7 7 6 4 5 6 6 6 2 4 3 2 5 4 4 3 1 4 3 2
15 16 18 19 17 15 9 11 11 7 13 9 6 14 17 14 11 9 8 5 4 4 6 7 6 5 6 6 5 5 7 6 6 4 4 3 2 0 3 2 2 2 3
10 13 18 18 15 14 9 8 11 12 12 6 2 9 16 16 15 12 9 9 6 3 5 6 5 4 5 5 6 6 7 5 5 6 4 3 2 2 2 2 1 1 3
8 13 17 20 19 16 10 11 11 12 17 10 13 10 13 10 10 9 9 7 6 5 5 6 6 6 6 6 6 5 6 6 6 7 6 4 3 3 2 2 2 2 2
8 12 15 17 18 17 17 16 16 15 20 19 13 12 12 14 11 11 9 7 7 6 7 7 6 6 6 7 7 6 6 6 5 5 6 4 3 4 3 2 2 3 1
13 10 14 16 16 16 16 15 15 18 16 15 12 13 13 13 13 12 12 10 7 7 7 6 6 6 6 7 7 6 5 8 4 4 6 4 3 4 3 3 3 2 2
18 11 14 14 18 16 15 14 13 16 19 16 15 14 12 13 11 11 11 10 9 9 7 7 6 6 6 7 6 7 6 8 6 4 5 6 4 4 4 4 3 3 1
23 11 16 17 16 19 16 16 11 13 12 13 15 14 14 14 13 12 11 11 10 7 7 7 7 6 7 7 7 7 5 8 6 4 6 6 3 6 5 3 3 2 2
22 12 13 16 17 18 19 20 20 17 10 15 16 15 14 14 15 13 11 11 10 7 6 7 7 6 7 7 7 7 5 7 6 4 6 5 6 5 3 3 4 3 2
21 12 14 17 18 19 18 17 20 16 17 16 16 17 15 15 16 14 12 11 9 7 6 6 7 5 7 8 8 7 7 7 5 4 5 5 6 4 4 3 3 3 2
11 9 13 14 16 16 17 17 19 19 19 18 16 15 14 13 14 13 11 11 9 8 7 8 6 6 6 5 9 7 6 7 6 3 4 6 7 8 3 1 3 2 2
9 1 6 15 17 18 19 17 18 18 19 18 17 14 14 14 15 12 13 11 11 8 8 8 7 7 4 8 12 8 6 6 6 4 6 5 8 7 8 8 5 2 2
8 3 3 7 15 18 19 19 18 16 16 17 16 15 14 14 14 13 13 12 11 9 9 7 7 7 6 7 11 11 6 6 5 5 5 5 4 6 6 8 7 8 7
9 5 7 5 14 13 16 17 18 20 18 17 17 16 15 14 13 14 13 10 9 10 9 7 6 7 4 7 11 12 7 6 6 6 5 4 4 6 6 6 6 7 5
8 6 2 16 15 17 17 19 19 16 18 20 19 18 17 14 13 15 13 10 10 8 6 6 6 6 5 8 13 10 6 6 6 5 4 3 5 7 6 7 6 6 6
6 6 10 13 19 14 17 17 20 21 17 21 19 18 18 17 13 13 13 8 8 8 8 7 4 6 6 9 13 9 5 6 4 4 4 5 5 5 7 6 4 7 5
8 4 13 15 17 17 17 16 14 17 15 17 19 17 18 15 13 12 11 11 10 9 7 8 4 5 6 7 11 10 5 5 5 3 3 4 6 9 9 6 5 2 4
6 11 14 12 15 19 19 18 16 11 14 14 16 14 18 14 12 15 11 12 12 11 7 7 4 3 5 7 8 9 9 6 6 2 1 2 9 11 10 6 7 9 5
11 12 15 14 12 11 10 15 15 17 19 11 14 14 17 14 13 15 13 11 11 9 7 6 6 4 3 4 12 11 10 8 4 3 5 8 10 9 7 12 12 9 5
13 12 17 16 16 15 13 15 17 19 17 17 15 13 17 14 12 10 10 10 9 9 7 7 6 5 4 4 4 4 5 8 7 7 6 7 8 8 5 5 7 5 4
10 11 17 14 14 18 16 16 19 18 18 16 14 13 12 11 9 7 6 9 6 9 9 6 7 8 5 3 6 5 5 5 6 6 4 4 5 5 4 4 5 5 5
10 7 9 11 14 21 19 16 16 16 18 16 12 11 11 10 8 9 7 16 6 11 9 10 8 4 10 11 8 8 9 9 9 6 4 3 3 4 2 4 4 4 6
Wind_Direction
198 202 198 183 188 191 178 169 178 174 158 160 154 132 135 116 95 103 110 123 110 115 110 109 101 99 85 81 109 101 75 50 39 97 74 37 27 40 34 56 60 45 54
171 174 188 197 197 177 181 171 172 160 170 167 151 131 130 96 102 108 99 108 108 112 112 119 121 101 93 84 99 102 108 73 13 120 88 109 345 8 18 38 50 30 37
183 190 180 171 180 184 179 179 174 161 173 150 122 105 99 96 92 92 88 73 95 97 108 104 107 95 96 99 86 125 116 122 21 60 135 101 196 146 326 3 40 16 33
186 181 168 161 170 190 199 173 170 121 152 153 145 146 145 136 107 115 103 85 75 94 96 101 99 95 98 93 95 91 100 116 132 66 31 58 135 150 304 327 347 352 24
187 179 171 179 185 181 199 178 169 115 100 338 151 138 124 115 117 107 100 94 84 86 98 104 97 104 101 98 101 89 92 108 107 98 99 52 53 55 124 246 322 356 345
192 187 184 174 184 179 178 190 160 115 102 53 208 143 136 134 127 127 120 109 102 96 101 98 93 105 102 101 93 95 89 85 83 87 77 107 129 241 85 80 288 243 297
189 177 159 175 183 192 175 155 158 150 109 72 24 177 142 139 139 142 140 142 131 118 104 101 105 101 103 101 100 98 89 82 84 74 71 69 74 137 106 97 320 13 310
213 176 177 173 181 185 155 171 172 159 142 151 202 174 149 139 141 144 140 137 129 126 127 108 117 120 112 103 94 84 83 87 82 88 74 74 42 49 70 144 113 349 320
257 192 187 180 166 172 159 169 172 170 171 170 167 160 151 140 139 129 121 120 126 126 112 120 124 119 117 108 102 94 95 89 84 85 86 81 55 49 45 66 113 143 271
321 204 196 183 168 172 154 166 175 169 167 172 164 154 151 131 134 131 132 130 127 113 122 130 128 123 110 111 102 91 102 95 76 79 81 63 47 39 28 43 32 64 167
321 213 196 183 166 167 157 180 162 156 167 159 149 142 135 129 128 125 128 138 130 127 130 136 141 124 119 103 100 103 100 92 92 72 78 65 52 35 31 35 26 24 0
319 218 185 174 162 164 166 175 166 175 183 146 135 136 139 132 129 137 140 141 130 126 138 134 127 129 118 114 116 108 112 104 92 82 71 48 26 42 35 34 16 15 314
318 213 173 172 166 164 166 178 173 170 163 145 142 143 137 136 137 139 144 132 132 132 137 125 131 138 131 116 101 108 106 104 102 78 71 56 47 39 25 13 351 331 330
296 209 184 170 171 165 161 156 149 144 153 151 151 139 152 150 145 142 140 135 122 121 120 117 116 125 116 111 110 106 106 107 102 85 69 56 54 51 12 5 333 338 340
294 193 183 165 162 150 147 144 139 146 152 140 143 145 142 139 132 133 139 116 119 117 117 106 97 97 105 120 117 118 122 118 110 71 61 50 44 44 4 3 326 302 357
294 239 209 168 158 152 142 145 144 146 146 140 140 141 140 138 134 136 125 127 115 112 123 110 120 110 91 108 120 127 117 113 101 87 50 42 35 22 12 10 354 260 12
292 146 127 185 154 147 146 144 140 138 137 133 136 138 137 140 137 132 126 123 125 128 114 111 118 107 92 100 121 119 113 106 102 83 70 50 22 21 16 2 21 29 23
275 255 130 90 124 141 140 133 144 140 144 138 139 139 139 138 136 128 123 123 129 131 131 122 126 116 110 136 124 117 118 101 98 96 84 67 19 20 21 9 27 22 13
259 251 161 136 136 151 145 148 141 139 144 143 145 143 141 138 137 131 136 134 129 133 117 129 135 131 126 152 133 121 115 103 90 81 64 36 27 2 18 45 32 21 13
286 239 155 148 141 151 148 153 151 144 175 149 150 153 143 133 149 139 135 125 123 116 110 104 128 136 130 156 141 130 125 105 101 54 35 27 35 46 42 60 53 52 343
264 235 166 164 148 141 140 141 145 139 159 143 153 151 131 135 139 131 126 122 117 110 104 103 101 103 114 127 127 124 117 128 106 89 51 9 39 59 47 47 51 22 301
216 205 173 166 154 146 146 144 141 128 131 147 143 141 125 136 137 130 128 120 122 119 109 110 95 70 87 92 116 114 109 109 105 112 89 71 72 59 42 38 34 37 39
200 194 168 147 130 116 134 128 140 144 121 163 126 146 125 132 139 135 131 127 125 130 134 139 136 109 74 68 84 88 93 98 97 103 107 100 67 49 35 25 30 33 30
192 186 170 162 147 137 139 134 150 147 139 135 143 158 128 139 137 139 130 134 139 143 146 152 134 131 108 92 87 85 87 93 84 77 73 77 77 58 37 23 23 17 25
163 175 170 158 145 117 133 144 145 145 141 137 146 138 128 128 118 83 107 140 149 157 159 155 153 143 130 165 126 130 119 115 114 97 59 45 49 49 30 24 26 9 15
142 130 130 138 140 138 131 136 141 139 141 138 143 140 131 126 121 111 87 39 75 130 124 125 140 89 114 125 130 132 122 118 123 67 82 74 70 77 50 42 22 17 16